Wind_Speed
14 14 14 13 14 14 14 14 13 13 12 11 11 11 11 11 11 10 10 10 10 10 10 10 9 9 9 9 9 9 10 10 10 10 10 10 11 11 11 12 12 12 12
16 15 15 14 14 14 14 14 14 13 13 13 12 12 11 11 12 12 11 11 12 11 11 11 11 11 10 10 11 11 11 12 12 13 12 12 13 13 13 13 13 13 14
18 17 16 16 15 15 15 15 15 15 14 14 14 13 13 12 13 13 13 13 13 13 13 12 12 12 12 12 12 13 13 13 14 14 14 14 14 14 15 14 14 15 15
19 19 18 17 17 16 16 16 17 16 16 16 15 15 14 14 15 15 15 14 15 15 14 13 13 14 14 14 14 14 15 15 15 16 16 16 16 16 16 16 16 16 16
21 21 20 20 19 18 18 18 18 18 17 17 17 16 16 16 16 17 17 16 16 16 16 16 15 15 15 15 16 16 16 16 16 17 17 17 17 17 17 17 17 17 16
23 23 22 22 21 21 21 21 20 20 19 19 19 19 18 18 18 18 18 18 18 18 18 18 18 17 17 17 17 17 17 17 17 18 18 18 18 18 18 18 18 17 18
25 25 24 24 23 23 23 22 22 22 21 20 20 21 21 20 20 19 19 20 20 20 20 20 21 20 19 19 19 18 18 18 18 19 19 19 19 19 19 19 18 18 19
27 27 26 26 25 25 25 24 24 24 23 22 22 22 22 22 22 21 21 21 22 21 21 22 22 22 21 20 20 20 20 20 20 20 20 20 20 20 20 20 19 19 20
28 28 28 28 27 27 26 26 26 25 24 23 23 23 23 23 23 23 23 22 22 23 23 23 23 22 22 22 22 22 21 21 21 21 21 21 21 21 21 21 21 21 21
29 29 29 30 29 28 28 28 27 27 26 25 25 25 25 25 25 25 25 24 24 24 24 24 24 24 23 23 23 23 23 23 22 23 23 23 22 23 23 22 22 23 23
31 31 31 31 31 31 30 30 29 29 28 27 26 26 27 26 27 27 27 27 26 26 25 25 26 25 25 25 24 24 24 24 24 24 24 24 24 24 24 24 25 25 25
33 32 33 33 33 32 32 32 31 30 30 29 28 28 28 28 28 29 29 28 27 27 27 26 26 27 27 26 25 25 25 26 26 26 26 26 26 26 26 26 26 26 26
34 34 34 34 34 34 34 34 33 32 31 31 30 29 29 29 30 31 30 29 28 28 27 27 27 27 27 27 26 27 27 28 28 28 28 28 27 27 27 27 27 26 26
35 35 35 35 36 35 35 35 34 33 33 32 32 31 31 31 31 32 32 31 30 30 30 29 28 28 28 28 28 27 27 28 29 29 29 28 28 28 27 27 27 27 26
37 37 36 36 37 37 37 36 36 35 35 35 34 33 32 32 32 32 32 32 32 32 32 31 30 29 28 29 29 29 28 28 29 29 29 29 28 28 28 27 27 27 27
38 38 38 38 38 39 38 38 37 37 36 36 35 35 34 33 32 33 33 34 34 34 33 33 31 30 29 29 29 30 29 29 30 29 30 30 29 28 28 28 28 28 29
39 39 39 39 39 39 40 39 38 38 37 36 36 36 35 35 34 34 34 35 35 35 34 34 33 32 31 30 29 30 30 30 30 31 31 30 30 30 30 30 30 30 30
40 40 40 39 39 40 40 40 39 38 38 38 37 37 36 36 36 35 36 36 36 36 35 35 34 34 33 32 31 31 32 31 30 31 32 32 31 31 31 31 31 31 31
41 41 41 40 40 41 41 40 39 38 39 39 38 38 37 37 36 36 37 37 36 36 36 36 35 34 34 33 32 32 31 32 32 32 33 34 32 31 31 32 33 33 32
41 41 42 41 41 41 41 41 40 40 40 39 39 38 38 38 37 36 36 37 37 36 36 37 36 35 34 34 33 32 31 32 33 33 33 33 33 32 32 33 33 33 33
42 42 42 42 42 42 42 42 41 40 40 41 40 39 39 39 39 37 36 36 36 36 36 37 37 36 35 35 34 33 33 33 33 33 32 32 32 32 32 32 32 31 32
42 42 41 42 42 42 43 43 42 42 42 41 41 40 39 39 38 37 35 35 36 36 37 38 38 37 36 35 35 35 34 34 34 34 32 31 31 31 31 31 31 31 31
42 42 41 42 42 42 43 43 43 43 43 41 41 40 40 39 38 37 36 36 36 36 36 37 37 38 36 35 35 35 34 34 34 33 32 31 31 31 32 32 32 32 32
42 42 42 42 42 42 43 43 43 43 43 42 41 40 39 38 38 37 37 37 36 36 36 36 38 38 37 36 35 34 34 33 32 32 31 31 31 32 32 33 33 33 34
41 42 42 42 43 42 42 42 43 42 42 42 41 41 40 39 38 38 37 38 38 37 37 37 38 38 38 37 36 35 34 33 33 32 32 32 32 32 32 33 34 34 35
39 41 41 41 42 42 42 42 42 42 42 42 42 42 41 40 39 39 38 38 39 39 39 38 38 39 38 38 38 36 34 33 34 34 34 34 34 34 34 34 34 35 35
Wind_Direction
249 250 252 254 254 251 247 244 239 240 243 244 246 251 254 255 256 259 262 267 269 267 265 267 268 268 268 268 270 273 274 275 277 280 283 284 285 287 288 289 289 288 286
250 251 252 253 253 251 248 244 242 243 245 247 248 250 253 254 257 261 264 267 268 269 269 267 267 267 268 268 271 273 275 277 278 280 282 284 284 285 287 288 288 289 290
251 250 252 252 251 251 249 247 247 248 249 250 249 251 253 254 256 261 265 266 268 269 268 268 268 269 270 271 272 274 275 275 277 279 281 283 284 285 286 286 287 288 289
251 251 251 251 250 250 249 249 250 251 251 253 253 252 254 256 258 261 264 266 266 267 268 268 269 270 270 271 272 274 275 275 276 277 279 282 284 285 285 286 287 289 289
253 251 251 251 250 249 250 250 252 252 253 255 256 255 254 256 259 262 263 265 265 266 267 269 271 271 270 272 272 273 275 276 277 277 279 281 283 284 285 286 286 286 286
254 253 252 251 251 250 250 252 253 254 255 255 257 258 259 259 259 259 262 264 265 265 267 270 271 273 271 272 273 275 275 276 277 277 278 279 281 282 284 285 284 284 284
255 254 253 253 253 252 251 252 253 255 256 257 257 259 260 261 261 261 263 264 265 266 267 269 271 273 271 270 272 273 275 276 276 277 278 279 281 282 283 283 282 281 283
254 254 253 253 253 253 253 253 254 254 255 257 258 259 260 261 261 261 263 263 265 266 267 268 270 272 272 271 270 271 272 274 274 275 277 278 279 281 282 283 282 281 282
252 253 253 253 253 253 253 254 255 256 255 255 256 258 259 260 261 262 263 263 265 266 267 268 269 271 271 270 269 270 272 273 274 275 276 277 278 280 280 280 281 280 281
252 252 252 252 252 253 253 254 254 256 256 255 256 257 258 259 261 261 262 265 266 267 268 267 267 269 269 269 270 270 270 271 273 274 276 276 278 279 280 279 279 280 280
252 253 252 251 251 251 252 252 253 254 255 256 257 258 258 260 262 262 264 266 266 267 269 267 267 267 267 268 269 270 270 271 271 272 274 275 277 278 278 278 279 279 279
254 255 254 252 251 251 251 251 252 253 254 255 256 257 259 261 262 263 264 265 265 267 268 268 268 266 265 266 268 269 270 270 271 272 274 276 277 277 277 278 279 279 280
255 255 255 253 252 250 250 250 251 252 254 255 256 257 258 261 263 264 263 264 264 266 267 268 269 269 266 266 267 267 268 270 271 272 273 275 276 276 276 278 279 279 280
255 255 255 254 252 250 250 250 251 252 254 255 255 257 258 260 262 263 263 262 263 265 266 267 268 269 267 266 266 268 269 271 272 273 273 273 274 274 275 278 278 278 280
254 255 255 254 252 250 249 249 251 252 254 255 256 257 258 260 260 262 261 261 262 263 264 265 266 268 267 267 266 267 268 271 272 272 272 271 273 274 275 277 278 279 279
255 255 255 255 254 252 249 250 250 252 254 256 257 257 257 258 259 261 260 260 261 261 261 263 263 263 264 267 267 267 267 270 271 272 271 270 271 273 274 276 277 279 279
254 254 254 254 254 253 251 251 251 252 254 255 257 257 257 257 259 260 260 259 260 261 261 260 261 261 262 265 266 265 266 270 271 272 271 270 270 272 274 276 277 278 279
254 254 254 254 254 253 252 252 252 252 253 254 255 255 256 258 259 261 261 260 259 259 259 259 259 260 260 263 265 266 267 269 272 274 271 268 270 271 274 276 277 278 278
253 253 253 254 253 252 252 253 252 251 252 253 253 254 256 257 257 259 261 260 259 258 258 258 258 259 261 262 265 266 270 272 274 276 274 269 269 271 274 276 277 278 278
253 253 252 252 253 252 251 253 252 251 251 252 253 254 255 256 257 258 260 261 260 258 257 257 257 258 259 261 265 267 270 272 274 277 274 271 271 272 275 276 277 278 278
252 253 253 252 252 250 250 252 252 252 251 252 253 254 255 256 257 258 260 259 260 258 256 256 256 256 259 262 263 265 269 270 272 275 273 272 272 272 275 276 277 278 279
252 253 252 252 251 250 250 251 252 252 251 252 253 253 254 255 256 257 259 259 260 259 258 257 256 256 259 261 262 264 268 271 272 272 272 272 273 272 274 275 277 278 279
252 252 252 253 252 251 251 250 250 251 251 251 251 251 252 253 254 256 259 260 260 259 259 257 256 256 258 259 261 264 267 270 271 270 270 272 272 273 274 276 278 279 280
253 253 253 253 252 252 251 250 250 250 250 250 250 251 251 252 253 255 257 258 259 257 258 259 258 256 258 260 263 265 267 268 269 267 268 271 272 273 276 277 278 281 281
254 252 253 253 252 253 252 250 250 250 250 249 249 250 251 252 252 253 256 257 257 258 258 260 260 258 259 260 263 264 266 266 266 267 268 268 270 272 275 277 279 281 283
255 253 253 252 252 253 252 250 249 250 250 250 249 249 250 251 251 252 255 257 257 259 260 261 262 259 259 260 262 262 262 264 265 266 268 268 269 272 275 277 278 280 283
Height
5837 5838 5838 5839 5840 5841 5842 5844 5845 5846 5847 5849 5850 5851 5852 5853 5854 5855 5856 5856 5857 5858 5858 5859 5859 5859 5860 5860 5861 5861 5861 5861 5861 5861 5861 5861 5861 5861 5860 5860 5860 5859 5859
5834 5835 5836 5837 5838 5839 5840 5841 5843 5844 5845 5846 5848 5849 5850 5851 5852 5853 5854 5854 5855 5856 5856 5857 5857 5858 5858 5858 5859 5859 5859 5859 5859 5859 5859 5859 5859 5858 5858 5858 5857 5857 5856
5831 5832 5833 5834 5835 5836 5837 5839 5840 5841 5842 5844 5845 5846 5847 5848 5849 5850 5851 5852 5853 5853 5854 5854 5855 5855 5856 5856 5856 5856 5857 5857 5856 5857 5857 5856 5856 5856 5856 5855 5855 5854 5854
5827 5829 5830 5831 5832 5833 5835 5836 5837 5838 5840 5841 5842 5843 5844 5845 5846 5847 5848 5849 5850 5851 5851 5852 5852 5853 5853 5853 5853 5853 5854 5854 5854 5854 5854 5854 5853 5853 5853 5853 5852 5852 5851
5824 5825 5826 5827 5829 5830 5831 5833 5834 5835 5837 5838 5839 5840 5841 5842 5843 5844 5845 5846 5847 5848 5848 5849 5849 5850 5850 5850 5850 5850 5851 5851 5851 5851 5851 5850 5850 5850 5849 5849 5849 5848 5848
5819 5820 5822 5824 5825 5826 5828 5829 5830 5832 5833 5834 5835 5836 5837 5838 5839 5840 5841 5843 5843 5844 5845 5845 5846 5846 5847 5847 5847 5847 5847 5847 5847 5847 5847 5847 5847 5846 5846 5846 5845 5845 5845
5814 5816 5817 5819 5821 5822 5824 5825 5827 5828 5829 5830 5831 5833 5834 5835 5835 5836 5837 5838 5839 5840 5841 5841 5842 5842 5843 5843 5843 5843 5843 5844 5844 5843 5843 5843 5843 5842 5842 5842 5841 5841 5841
5808 5810 5812 5814 5816 5817 5819 5820 5822 5823 5825 5826 5827 5828 5830 5831 5832 5832 5833 5834 5835 5836 5837 5837 5837 5838 5838 5839 5839 5839 5839 5840 5840 5839 5839 5839 5839 5838 5838 5837 5837 5837 5836
5802 5804 5806 5808 5810 5812 5814 5815 5817 5818 5820 5821 5822 5824 5825 5826 5827 5828 5828 5830 5831 5831 5832 5832 5833 5833 5834 5834 5834 5835 5835 5835 5835 5835 5835 5835 5834 5834 5833 5833 5832 5832 5832
5796 5798 5800 5802 5804 5806 5808 5810 5812 5813 5814 5815 5817 5818 5819 5820 5822 5823 5824 5825 5826 5826 5827 5827 5828 5828 5829 5829 5829 5830 5830 5830 5830 5830 5830 5830 5829 5829 5828 5828 5827 5827 5826
5790 5792 5794 5796 5798 5800 5802 5804 5806 5807 5809 5810 5811 5813 5814 5815 5816 5817 5818 5819 5820 5821 5821 5822 5822 5823 5823 5824 5824 5824 5825 5825 5825 5825 5825 5824 5824 5824 5823 5822 5822 5822 5821
5783 5785 5787 5789 5791 5793 5796 5797 5799 5801 5803 5804 5806 5807 5808 5809 5810 5811 5812 5813 5814 5815 5816 5816 5816 5817 5817 5818 5819 5819 5819 5819 5819 5819 5819 5819 5818 5818 5817 5817 5817 5816 5816
5776 5778 5780 5782 5784 5786 5788 5791 5792 5794 5796 5798 5799 5801 5802 5803 5804 5804 5805 5807 5807 5808 5809 5810 5810 5811 5811 5812 5813 5813 5813 5814 5814 5813 5813 5813 5812 5812 5811 5811 5811 5810 5810
5769 5771 5773 5774 5777 5779 5781 5783 5785 5787 5789 5791 5792 5794 5795 5796 5797 5798 5798 5800 5801 5802 5803 5803 5804 5805 5805 5806 5806 5807 5807 5807 5807 5807 5807 5807 5806 5806 5805 5805 5805 5804 5804
5761 5763 5765 5766 5768 5770 5773 5775 5777 5780 5782 5783 5785 5786 5787 5788 5789 5790 5791 5792 5793 5794 5795 5796 5797 5798 5798 5799 5799 5800 5800 5800 5800 5800 5800 5800 5800 5800 5799 5799 5798 5798 5798
5752 5754 5756 5757 5759 5761 5764 5766 5769 5771 5773 5775 5777 5778 5779 5780 5781 5783 5784 5785 5785 5786 5787 5788 5789 5790 5791 5791 5792 5793 5793 5793 5793 5793 5793 5793 5793 5793 5793 5793 5792 5792 5791
5743 5744 5746 5748 5750 5752 5755 5757 5760 5763 5765 5767 5768 5769 5771 5772 5773 5774 5775 5776 5777 5777 5778 5780 5781 5783 5784 5784 5785 5786 5786 5786 5786 5786 5786 5786 5787 5787 5786 5786 5786 5785 5785
5733 5735 5737 5739 5741 5743 5745 5748 5751 5753 5756 5758 5759 5761 5762 5763 5765 5766 5766 5767 5768 5769 5770 5771 5773 5774 5775 5777 5778 5778 5779 5779 5779 5779 5779 5779 5779 5779 5779 5779 5779 5778 5777
5723 5726 5728 5730 5732 5734 5736 5739 5741 5744 5746 5749 5750 5752 5753 5754 5756 5757 5758 5758 5759 5760 5761 5763 5764 5766 5767 5769 5770 5771 5771 5771 5771 5771 5771 5771 5771 5771 5772 5771 5771 5770 5770
5713 5715 5718 5719 5721 5724 5726 5729 5732 5734 5737 5739 5741 5743 5744 5745 5747 5748 5748 5749 5750 5751 5752 5754 5756 5757 5759 5760 5762 5763 5763 5763 5764 5764 5763 5763 5764 5763 5763 5763 5763 5762 5762
5703 5705 5707 5709 5711 5713 5716 5719 5721 5725 5727 5730 5732 5733 5734 5736 5737 5739 5740 5741 5742 5743 5744 5746 5747 5749 5751 5752 5754 5755 5756 5756 5756 5756 5755 5755 5756 5755 5755 5755 5754 5754 5754
5692 5694 5696 5698 5701 5703 5706 5708 5712 5714 5717 5720 5722 5723 5725 5726 5728 5730 5731 5732 5734 5735 5736 5737 5739 5740 5742 5744 5745 5746 5747 5749 5748 5748 5748 5748 5747 5747 5747 5747 5747 5746 5746
5681 5683 5686 5688 5690 5692 5695 5698 5701 5703 5706 5709 5711 5713 5715 5717 5719 5721 5723 5724 5725 5727 5728 5729 5730 5732 5734 5735 5736 5737 5738 5739 5740 5741 5740 5740 5740 5740 5740 5740 5739 5739 5738
5670 5672 5674 5677 5679 5681 5684 5687 5690 5693 5696 5699 5702 5704 5706 5708 5710 5712 5714 5715 5717 5718 5719 5720 5722 5723 5725 5726 5727 5729 5729 5730 5731 5732 5733 5733 5733 5733 5733 5732 5732 5731 5730
5658 5661 5663 5666 5668 5671 5673 5676 5679 5683 5686 5689 5692 5694 5697 5699 5701 5703 5705 5707 5708 5709 5711 5712 5713 5714 5716 5717 5718 5720 5721 5721 5722 5723 5725 5726 5726 5725 5725 5724 5724 5723 5722
5648 5650 5653 5655 5658 5660 5663 5665 5669 5673 5676 5679 5682 5684 5687 5689 5692 5694 5696 5698 5699 5700 5702 5703 5704 5705 5706 5708 5709 5710 5711 5713 5714 5715 5715 5716 5717 5718 5717 5716 5716 5715 5714